Sandpoint, ID

10:55 AM PST on December 10, 2016 (GMT -0800)
Sandpoint

Weather History for KSZT - March, 2014

Change the Weather History Date:

Friday, March 21, 2014

  Actual Average Record
Temperature  
Mean Temperature 32 °F -  
Max Temperature 44 °F 49 °F 66 °F (1915)
Min Temperature 21 °F 29 °F 8 °F (1913)
Degree Days  
Heating Degree Days 32    
Moisture  
Dew Point 23 °F    
Average Humidity 76    
Maximum Humidity 100    
Minimum Humidity 29    
Precipitation  
Precipitation 0.00 in - - ()
Sea Level Pressure  
Sea Level Pressure 30.23 in    
Wind  
Wind Speed 1 mph (East)    
Max Wind Speed 9 mph    
Max Gust Speed -    
Visibility 10 miles    
Events      
Averages and records for this station are not official NWS values.
T = Trace of Precipitation, MM = Missing Value Source: NWS Daily Summary

Daily Weather History Graph

Daily Weather History Graph

Search for Another Location

Airport or City:

Trip Planner

Search our weather history database for the weather conditions in past years. The results will help you decide how hot, cold, wet, or windy it might be!

Date:

Astronomy

Mar. 21, 2014 Rise Set
Actual Time 6:46 AM PDT 7:00 PM PDT
Civil Twilight 6:15 AM PDT 7:31 PM PDT
Nautical Twilight 5:39 AM PDT 8:08 PM PDT
Astronomical Twilight 5:01 AM PDT 8:46 PM PDT
Moon No Moon Rise 9:20 AM PDT (3/21)
Length of Visible Light 13h 16m
Length of Day
12h 13m
Waning Gibbous, 74% of the Moon is Illuminated
Mar 21
Waning Gibbous
Mar 23
Last Quarter
Mar 30
New
Apr 7
First Quarter
Apr 15
Full

Hourly Weather History & Observations

Time (PDT) Temp. Windchill Dew Point Humidity Pressure Visibility Wind Dir Wind Speed Gust Speed Precip Events Conditions
12:15 AM 26.6 °F - 26.6 °F 100% 30.23 in 10.0 mi Calm Calm - N/A   Clear
12:35 AM 26.6 °F - 26.6 °F 100% 30.23 in 10.0 mi Calm Calm - N/A   Clear
12:55 AM 24.8 °F - 24.8 °F 100% 30.23 in 10.0 mi Calm Calm - N/A   Clear
1:15 AM 24.8 °F - 24.8 °F 100% 30.23 in 10.0 mi Calm Calm - N/A   Clear
1:35 AM 24.8 °F - 24.8 °F 100% 30.23 in 10.0 mi Calm Calm - N/A   Clear
1:55 AM 24.8 °F - 24.8 °F 100% 30.24 in 10.0 mi Calm Calm - N/A   Clear
2:15 AM 24.8 °F - 24.8 °F 100% 30.24 in 10.0 mi Calm Calm - N/A   Clear
2:35 AM 24.8 °F - 24.8 °F 100% 30.24 in 10.0 mi Calm Calm - N/A   Clear
2:55 AM 24.8 °F - 24.8 °F 100% 30.24 in 10.0 mi Calm Calm - N/A   Clear
3:15 AM 24.8 °F - 24.8 °F 100% 30.24 in 10.0 mi Calm Calm - N/A   Clear
3:35 AM 23.0 °F - 23.0 °F 100% 30.24 in 10.0 mi Calm Calm - N/A   Clear
3:55 AM 23.0 °F - 23.0 °F 100% 30.24 in 10.0 mi Calm Calm - N/A   Clear
4:15 AM 23.0 °F - 23.0 °F 100% 30.24 in 10.0 mi Calm Calm - N/A   Clear
4:35 AM 23.0 °F - 23.0 °F 100% 30.24 in 10.0 mi Calm Calm - N/A   Clear
4:55 AM 23.0 °F - 23.0 °F 100% 30.24 in 10.0 mi Calm Calm - N/A   Clear
5:15 AM 23.0 °F - 23.0 °F 100% 30.24 in 10.0 mi Calm Calm - N/A   Clear
5:35 AM 23.0 °F - 23.0 °F 100% 30.25 in 10.0 mi Calm Calm - N/A   Clear
5:55 AM 21.2 °F - 21.2 °F 100% 30.25 in 10.0 mi Calm Calm - N/A   Clear
6:15 AM 23.0 °F - 23.0 °F 100% 30.26 in 10.0 mi Calm Calm - N/A   Clear
6:35 AM 21.2 °F - 21.2 °F 100% 30.26 in 10.0 mi Calm Calm - N/A   Clear
6:55 AM 23.0 °F - 23.0 °F 100% 30.26 in 10.0 mi Calm Calm - N/A   Clear
7:15 AM 21.2 °F - 21.2 °F 100% 30.26 in 10.0 mi Calm Calm - N/A   Clear
7:35 AM 23.0 °F - 23.0 °F 100% 30.26 in 10.0 mi Calm Calm - N/A   Clear
7:55 AM 26.6 °F - 26.6 °F 100% 30.27 in 10.0 mi Calm Calm - N/A   Clear
8:15 AM 26.6 °F - 26.6 °F 100% 30.27 in 10.0 mi Calm Calm - N/A   Clear
8:35 AM 28.4 °F - 28.4 °F 100% 30.27 in 10.0 mi Calm Calm - N/A   Scattered Clouds
8:55 AM 30.2 °F 26.7 °F 26.6 °F 86% 30.27 in 10.0 mi North 3.5 mph - N/A   Scattered Clouds
9:15 AM 32.0 °F 28.7 °F 26.6 °F 80% 30.27 in 10.0 mi NE 3.5 mph - N/A   Clear
9:35 AM 32.0 °F 28.7 °F 26.6 °F 80% 30.27 in 10.0 mi NE 3.5 mph - N/A   Scattered Clouds
9:55 AM 32.0 °F - 26.6 °F 80% 30.27 in 10.0 mi Calm Calm - N/A   Clear
10:15 AM 33.8 °F - 28.4 °F 81% 30.27 in 10.0 mi Calm Calm - N/A   Clear
10:35 AM 33.8 °F - 28.4 °F 81% 30.26 in 10.0 mi Calm Calm - N/A   Clear
10:55 AM 33.8 °F - 28.4 °F 81% 30.26 in 10.0 mi Calm Calm - N/A   Clear
11:15 AM 35.6 °F - 28.4 °F 75% 30.25 in 10.0 mi Calm Calm - N/A   Clear
11:35 AM 35.6 °F - 28.4 °F 75% 30.25 in 10.0 mi Calm Calm - N/A   Clear
11:55 AM 37.4 °F 33.8 °F 28.4 °F 70% 30.24 in 10.0 mi SE 4.6 mph - N/A   Clear
12:15 PM 37.4 °F 32.1 °F 28.4 °F 70% 30.24 in 10.0 mi ESE 6.9 mph - N/A   Clear
12:35 PM 39.2 °F 33.6 °F 28.4 °F 65% 30.23 in 10.0 mi ESE 8.1 mph - N/A   Scattered Clouds
12:55 PM 39.2 °F 33.0 °F 28.4 °F 65% 30.23 in 10.0 mi ESE 9.2 mph - N/A   Mostly Cloudy
1:15 PM 41.0 °F 35.8 °F 28.4 °F 61% 30.22 in 10.0 mi East 8.1 mph - N/A   Overcast
1:35 PM 41.0 °F 35.8 °F 26.6 °F 57% 30.22 in 10.0 mi East 8.1 mph - N/A   Overcast
1:55 PM 39.2 °F 37.0 °F 26.6 °F 61% 30.22 in 10.0 mi NNE 3.5 mph - N/A   Overcast
2:15 PM 39.2 °F - 21.2 °F 49% 30.21 in 10.0 mi Calm Calm - N/A   Mostly Cloudy
2:35 PM 41.0 °F 37.1 °F 26.6 °F 57% 30.20 in 10.0 mi East 5.8 mph - N/A   Scattered Clouds
2:55 PM 42.8 °F 38.6 °F 23.0 °F 46% 30.20 in 10.0 mi East 6.9 mph - N/A   Clear
3:15 PM 42.8 °F 39.3 °F 23.0 °F 46% 30.19 in 10.0 mi East 5.8 mph - N/A   Scattered Clouds
3:35 PM 42.8 °F 39.3 °F 14.0 °F 31% 30.18 in 10.0 mi ESE 5.8 mph - N/A   Mostly Cloudy
3:55 PM 44.6 °F 40.7 °F 17.6 °F 34% 30.18 in 10.0 mi East 6.9 mph - N/A   Overcast
4:15 PM 44.6 °F 42.2 °F 19.4 °F 37% 30.17 in 10.0 mi SSE 4.6 mph - N/A   Overcast
4:35 PM 44.6 °F 40.2 °F 15.8 °F 31% 30.17 in 10.0 mi ESE 8.1 mph - N/A   Overcast
4:55 PM 44.6 °F 42.2 °F 14.0 °F 29% 30.17 in 10.0 mi SE 4.6 mph - N/A   Overcast
5:15 PM 41.0 °F 36.4 °F 14.0 °F 33% 30.18 in 10.0 mi SW 6.9 mph - N/A   Mostly Cloudy
5:35 PM 41.0 °F 37.1 °F 14.0 °F 33% 30.18 in 10.0 mi WSW 5.8 mph - N/A   Scattered Clouds
5:55 PM 42.8 °F 37.5 °F 15.8 °F 34% 30.19 in 10.0 mi NE 9.2 mph - N/A   Mostly Cloudy
6:15 PM 41.0 °F 36.4 °F 19.4 °F 42% 30.19 in 10.0 mi North 6.9 mph - N/A   Overcast
6:35 PM 41.0 °F 35.8 °F 21.2 °F 45% 30.20 in 10.0 mi NNE 8.1 mph - N/A   Overcast
6:55 PM 39.2 °F 35.9 °F 19.4 °F 45% 30.20 in 10.0 mi NNE 4.6 mph - N/A   Mostly Cloudy
7:15 PM 37.4 °F - 19.4 °F 48% 30.20 in 10.0 mi Calm Calm - N/A   Scattered Clouds
7:35 PM 33.8 °F - 23.0 °F 65% 30.20 in 10.0 mi Calm Calm - N/A   Scattered Clouds
7:55 PM 33.8 °F - 23.0 °F 65% 30.20 in 10.0 mi Calm Calm - N/A   Clear
8:15 PM 32.0 °F - 23.0 °F 69% 30.21 in 10.0 mi Calm Calm - N/A   Clear
8:35 PM 33.8 °F - 21.2 °F 60% 30.22 in 10.0 mi Calm Calm - N/A   Mostly Cloudy
8:55 PM 32.0 °F 26.4 °F 23.0 °F 69% 30.22 in 10.0 mi NNE 5.8 mph - N/A   Mostly Cloudy
9:15 PM 30.2 °F - 23.0 °F 75% 30.22 in 10.0 mi Calm Calm - N/A   Scattered Clouds
9:35 PM 30.2 °F - 23.0 °F 75% 30.23 in 10.0 mi Calm Calm - N/A   Clear
9:55 PM 28.4 °F - 23.0 °F 80% 30.23 in 10.0 mi Calm Calm - N/A   Clear
10:15 PM 28.4 °F - 23.0 °F 80% 30.24 in 10.0 mi Calm Calm - N/A   Clear
10:35 PM 28.4 °F - 23.0 °F 80% 30.24 in 10.0 mi Calm Calm - N/A   Clear
10:55 PM 28.4 °F - 23.0 °F 80% 30.24 in 10.0 mi Calm Calm - N/A   Mostly Cloudy
11:15 PM 28.4 °F - 23.0 °F 80% 30.25 in 10.0 mi Calm Calm - N/A   Mostly Cloudy
11:35 PM 28.4 °F - 23.0 °F 80% 30.25 in 10.0 mi Calm Calm - N/A   Clear
11:55 PM 26.6 °F - 23.0 °F 86% 30.25 in 10.0 mi Calm Calm - N/A   Clear